TOURFACTS.DK  
Stats and Facts from Tour de France.

Tour de France 2018 starts in 169 days
  Riders   Stages   Teams   Summits   Yearly  


 
Search by year

 2017 - St.21:
 14824 starters.
  5132 different riders.
  635 teams.
  2232 stages.
  454 restdays.
  439589.60 km.
  5653 abandonnees.


Top 3
GC
Christopher Froome86:20:55
Rigoberto Uran86:21:49
Romain Bardet86:23:15
Climb
Warren Barguil169 pt.
Primoz Roglic80 pt.
Thomas De Gendt64 pt.
Sprint
Michael Matthews359 pt.
André Greipel234 pt.
Edvald Boasson Hagen220 pt.
Youth
Simon Yates86:27:09
Louis Meintjes86:29:15
Emanuel Buchmann86:54:16
Facts from Tour de France 1975
  |   Stages.  |   Stage winners.  |   Days in yellow  |   Average speed.  |   Route.  |   Teams.  |   All riders.  |   Rookies.  |   Withdrawls.  |  

  |   GC.  |   Polka  |   Green  |   White  |   Summits. (In tour)  |   Summits. (Points)  |   Miscellaneous.  |  

Stage 11 on 08 - 07 - 1975
         Owning:    Eddy Merckx    
Pick a stage:  Pro 1a 1b 2 3 4 5 6 7 8 9a 9b 10 11 12 13 14 15 16 17 18 19 20 21 22
  PauSaint-Lary-Soulan | Dist: 160.00 km.
Cat: 1Col du TourmaletBELLucien Van Impe
20 points
 
Cat: 2Col d'AspinBELLucien Van Impe
15 points
 
Cat: 1Pla d'AdetNEDJoop Zoetemelk
20 points
 

Average speed for all riders in stage:  28,046 km./hr.
    Place:Name:Team:Time:Km/h:
NEDJoop ZoetemelkFRAGan-Mercier-Hutchinson05:27:18  +  00:00:00=29,331 
FRABernard ThevenetFRAPeugeot-BP-Michelin05:27:24  +  00:00:06=29,322 
BELLucien Van ImpeFRAGitane-Campagnolo05:28:13  +  00:00:55=29,249 
4 BELEddy MerckxITAMolteni05:28:13  +  00:00:55=29,249 
5 ESPLuis OcañaESPSuper Ser05:29:42  +  00:02:24=29,117 
6 ESPVicente LopezESPKas-Kaskol05:30:36  +  00:03:18=29,038 
7 ESPAndré RomeroFRAJobo-Wolber05:31:10  +  00:03:52=28,988 
8 BELJos De SchoenmaeckerITAMolteni05:31:16  +  00:03:58=28,980 
9 ESPFrancisco GaldosESPKas-Kaskol05:31:21  +  00:04:03=28,972 
10 ITAFelice GimondiITABianchi-Campagnolo05:31:53  +  00:04:35=28,926 
11 ITAGiovanni BattaglinITAJollyceramica05:31:55  +  00:04:37=28,923 
12 ITAFabrizio FabbriITABianchi-Campagnolo05:32:11  +  00:04:53=28,900 
13 ESPPedro TorresESPSuper Ser05:32:13  +  00:04:55=28,897 
14 NEDHennie KuiperNLDFrisol-G.B.C.05:32:17  +  00:04:59=28,891 
15 FRARaymond PoulidorFRAGan-Mercier-Hutchinson05:32:27  +  00:05:09=28,877 
16 FRAAlain SantyFRAGitane-Campagnolo05:32:58  +  00:05:40=28,832 
17 BELEduard JanssensITAMolteni05:33:24  +  00:06:06=28,794 
18 SUIJosef FuchsITAFilotex05:33:40  +  00:06:22=28,771 
19 ESPMariano MartinezFRAGitane-Campagnolo05:33:41  +  00:06:23=28,770 
20 NEDFedor Iwan Den HertogNLDFrisol-G.B.C.05:34:03  +  00:06:45=28,738 
21 FRAFerdinand JulienPRTSporting-Sottomayor05:34:10  +  00:06:52=28,728 
22 FRAJean-Pierre DanguillaumeFRAPeugeot-BP-Michelin05:34:10  +  00:06:52=28,728 
23 ESPJosé-Luis ViejoESPSuper Ser05:35:47  +  00:08:29=28,590 
24 PORJoaquim AgostinhoPRTSporting-Sottomayor05:36:23  +  00:09:05=28,539 
25 FRAGeorges TalbourdetFRAGan-Mercier-Hutchinson05:36:33  +  00:09:15=28,525 
26 ESPSantiago LazcanoESPSuper Ser05:36:42  +  00:09:24=28,512 
27 FRAJosé CatieauFRAPeugeot-BP-Michelin05:36:50  +  00:09:32=28,501 
28 FRAYves HézardFRAGan-Mercier-Hutchinson05:36:57  +  00:09:39=28,491 
29 ESPAntonio MenendezESPKas-Kaskol05:37:25  +  00:10:07=28,451 
30 FRAGuy LeleuFRAGitane-Campagnolo05:37:49  +  00:10:31=28,418 
31 FRARaymond DelisleFRAPeugeot-BP-Michelin05:38:01  +  00:10:43=28,401 
32 ESPJosé CasasESPSuper Ser05:38:15  +  00:10:57=28,381 
33 ITAFrancesco MoserITAFilotex05:38:29  +  00:11:11=28,362 
34 ITAArnaldo CaverzasiITAFilotex05:38:42  +  00:11:24=28,344 
35 FRABernard BourreauFRAPeugeot-BP-Michelin05:38:42  +  00:11:24=28,344 
36 FRARaymond MartinFRAGitane-Campagnolo05:38:45  +  00:11:27=28,339 
37 FRAJoël MillardFRAJobo-Wolber05:38:45  +  00:11:27=28,339 
38 FRAPatrick BeonFRAPeugeot-BP-Michelin05:39:01  +  00:11:43=28,317 
39 ITAGiacinto SantambrogioITABianchi-Campagnolo05:39:05  +  00:11:47=28,312 
40 FRAPatrick PerretBELMiko-De Gribaldy05:39:11  +  00:11:53=28,303 
41 ESPCarlos MeleroESPKas-Kaskol05:39:22  +  00:12:04=28,288 
42 BELRonald De WitteBELCarpenter Confortluxe-Flandria05:39:45  +  00:12:27=28,256 
43 BELTony HoubrechtsITABianchi-Campagnolo05:39:47  +  00:12:29=28,253 
44 NEDGerben KarstensFRAGitane-Campagnolo05:39:55  +  00:12:37=28,242 
45 BELAlbert Van VlierbergheBELMiko-De Gribaldy05:39:58  +  00:12:40=28,238 
46 ESPLuis BalagueESPSuper Ser05:40:08  +  00:12:50=28,224 
47 FRAMichel PerinFRAGan-Mercier-Hutchinson05:40:12  +  00:12:54=28,219 
48 BELJoseph SpruytITAMolteni05:40:16  +  00:12:58=28,213 
49 FRACharly RouxelFRAPeugeot-BP-Michelin05:40:38  +  00:13:20=28,183 
50 FRAJean-Pierre GenetFRAGan-Mercier-Hutchinson05:40:38  +  00:13:20=28,183 
51 ITAGiovanni CavalcantiITABianchi-Campagnolo05:40:49  +  00:13:31=28,168 
52 BELWilly TeirlinckFRAGitane-Campagnolo05:40:54  +  00:13:36=28,161 
53 FRAAndré MolletPRTSporting-Sottomayor05:41:09  +  00:13:51=28,140 
54 ENGBarry HobanFRAGan-Mercier-Hutchinson05:41:14  +  00:13:56=28,133 
55 BELHerman Van SpringelBELCarpenter Confortluxe-Flandria05:41:19  +  00:14:01=28,126 
56 FRAGuy SibilleFRAPeugeot-BP-Michelin05:41:22  +  00:14:04=28,122 
57 FRASylvain VasseurESPSuper Ser05:41:30  +  00:14:12=28,111 
58 NORKnut KnudsenITAJollyceramica05:41:36  +  00:14:18=28,103 
59 FRARobert MintkiewiczFRAGitane-Campagnolo05:41:44  +  00:14:26=28,092 
60 FRARégis OvionFRAPeugeot-BP-Michelin05:41:56  +  00:14:38=28,076 
61 FRARoger LegeayFRAJobo-Wolber05:43:02  +  00:15:44=27,986 
62 FRAJoel HauvieuxFRAJobo-Wolber05:43:02  +  00:15:44=27,986 
63 FRAMaurice Le GuillouxFRAGitane-Campagnolo05:43:10  +  00:15:52=27,975 
64 ITARoberto PoggialiITAFilotex05:43:21  +  00:16:03=27,960 
65 ITARenato MarchettiITAFilotex05:43:26  +  00:16:08=27,953 
66 NEDHenk PrinsenNLDFrisol-G.B.C.05:43:28  +  00:16:10=27,950 
67 DENOle RitterITAFilotex05:43:30  +  00:16:12=27,948 
68 BELFrans MintjensITAMolteni05:43:47  +  00:16:29=27,925 
69 BELJoseph HuysmansITAMolteni05:43:56  +  00:16:38=27,912 
70 FRARichard PianaroFRAJobo-Wolber05:44:07  +  00:16:49=27,898 
71 COLMartìn RodríguezITABianchi-Campagnolo05:44:11  +  00:16:53=27,892 
72 ITASimone FraccaroITABianchi-Campagnolo05:44:12  +  00:16:54=27,891 
73 ITASigfrido FontanelliITAFilotex05:44:12  +  00:16:54=27,891 
74 BELJosé De CauwerNLDFrisol-G.B.C.05:44:12  +  00:16:54=27,891 
75 FRAClaude MagniFRAJobo-Wolber05:44:15  +  00:16:57=27,887 
76 BELKarel RottiersITAMolteni05:44:22  +  00:17:04=27,877 
77 FRAFrancis CampanerPRTSporting-Sottomayor05:45:10  +  00:17:52=27,813 
78 FRAJean-Claude MisacFRAGan-Mercier-Hutchinson05:45:14  +  00:17:56=27,807 
79 FRAAlain CiganaFRAJobo-Wolber05:45:16  +  00:17:58=27,805 
80 FRARegis DelepineBELCarpenter Confortluxe-Flandria05:45:27  +  00:18:09=27,790 
81 BELWalter GodefrootBELCarpenter Confortluxe-Flandria05:45:53  +  00:18:35=27,755 
82 FRAHubert MathisBELMiko-De Gribaldy05:45:54  +  00:18:36=27,754 
83 BELLudo DelcroixITAMolteni05:45:56  +  00:18:38=27,751 
84 NEDGerard VianenFRAGan-Mercier-Hutchinson05:46:04  +  00:18:46=27,740 
85 BELMarc DemeyerBELCarpenter Confortluxe-Flandria05:46:15  +  00:18:57=27,726 
86 BELRené DillenFRAGitane-Campagnolo05:47:21  +  00:20:03=27,638 
87 NEDGerard KamperNLDFrisol-G.B.C.05:47:52  +  00:20:34=27,597 
88 ESPJosé GrandeESPKas-Kaskol05:47:55  +  00:20:37=27,593 
89 ESPJosé PesarrodonaESPKas-Kaskol05:47:58  +  00:20:40=27,589 
90 BELRoger LoyschBELMiko-De Gribaldy05:48:30  +  00:21:12=27,547 
91 PORJosé AmaroPRTSporting-Sottomayor05:48:51  +  00:21:33=27,519 
92 BELAndre DoyenBELMiko-De Gribaldy05:49:01  +  00:21:43=27,506 
93 FRASerge ParsaniITABianchi-Campagnolo05:49:06  +  00:21:48=27,499 
94 BELFrans Van VlierbergheBELMiko-De Gribaldy05:49:16  +  00:21:58=27,486 
95 BELHerman BeysensITAMolteni05:49:23  +  00:22:05=27,477 
96 BELMarc LievensITAMolteni05:49:48  +  00:22:30=27,444 
97 ITAAlessio AntoniniITAJollyceramica05:49:48  +  00:22:30=27,444 
98 NEDGerrie KnetemannFRAGan-Mercier-Hutchinson05:49:59  +  00:22:41=27,430 
99 ESPJulian AndianoESPSuper Ser05:50:00  +  00:22:42=27,429 
100 NEDBen KokenNLDFrisol-G.B.C.05:50:04  +  00:22:46=27,423 
101 ITADonato GiulianiITAJollyceramica05:50:30  +  00:23:12=27,389 
102 ITAPierino GavazziITAJollyceramica05:50:37  +  00:23:19=27,380 
103 ITAMauro SimonettiITAFilotex05:50:40  +  00:23:22=27,376 
104 ITAPietro DallaiITAFilotex05:50:40  +  00:23:22=27,376 
105 ITASandro QuintarelliITAJollyceramica05:50:40  +  00:23:22=27,376 
106 FRAAndré CorbeauFRAJobo-Wolber05:51:02  +  00:23:44=27,348 
107 PORFernando FerreiraPRTSporting-Sottomayor05:51:09  +  00:23:51=27,339 
108 FRAGerard MoneyronBELCarpenter Confortluxe-Flandria05:51:23  +  00:24:05=27,321 
109 MARAntoine GutierrezBELMiko-De Gribaldy05:52:07  +  00:24:49=27,264 
110 PORFirmino BernardinoPRTSporting-Sottomayor05:52:37  +  00:25:19=27,225 
111 ITAGiovanni Dalla BonaITAJollyceramica05:52:45  +  00:25:27=27,215 
112 BELRoger RosiersESPSuper Ser05:53:06  +  00:25:48=27,188 
113 BELMichel PollentierBELCarpenter Confortluxe-Flandria05:53:06  +  00:25:48=27,188 
114 NEDCees PriemNLDFrisol-G.B.C.05:53:31  +  00:26:13=27,156 
115 AUSDonald AllanNLDFrisol-G.B.C.05:53:41  +  00:26:23=27,143 
116 FRAJacques BoulasFRAJobo-Wolber05:53:49  +  00:26:31=27,133 
117 BELEddy PeelmanESPSuper Ser05:54:28  +  00:27:10=27,083 
118 BELRik Van LindenITABianchi-Campagnolo05:55:18  +  00:28:00=27,019 
119 ITALuigi CastellettiITABianchi-Campagnolo05:55:20  +  00:28:02=27,017 

Withdrawls: 7
 
Rider
Team
Reason
22  ESPGonzalo AjaESPKas-KaskolDid not finish
39  ITAGiacomo BazzanITAJollyceramicaDid not finish
90  ITARoberto SorliniITAFilotexDid not finish
93  BELWilfried DavidBELCarpenter Confortluxe-FlandriaDid not finish
98  BELDaniel VerplanckeBELCarpenter Confortluxe-FlandriaDid not finish
108  FRABernard LabourdettePRTSporting-SottomayorDid not finish
112  BELLucien De BrauwereBELMiko-De GribaldyDid not finish

Todays birthdays.

1887  Marcel Godivier
1895  Louis Thuayre
1896  Léon Devos
1932  Aniceto Utset
1935  Willy Altig
1939  Sebastián Elorza
1941  René Binggeli
1948  Gerard Moneyron
1953  Patrocinio Jiménez
1954  Pierre Bazzo
1955  Serge Beucherie
1967  Antonio Politano
1969  Sergio Barbero
1977  Luca Paolini
1980  Gregory Rast
1981  Christophe Riblon
1985  Sebastian Langeveld
1990  Johan Esteban Chaves




Visits: